Location: Niagara
(43.2500°N, 79.0670°W)
Time: 13:27:03
(UTC-04:00)

Vanguard 2 - All Passes

Search period start: 25 June 2018 00:00
Search period end: 05 July 2018 00:00
Orbit: 554 x 2939 km, 32.9° (Epoch: 24 June)

Date Brightness Start Highest point End Pass type
(mag) Time Alt. Az. Time Alt. Az. Time Alt. Az.
25 Jun - 00:50:12 10° S 00:53:23 12° SSE 00:56:12 10° SE visible
25 Jun - 02:55:20 10° SW 03:02:27 24° SSE 03:07:26 10° ESE visible
25 Jun - 05:04:52 10° WSW 05:10:44 29° S 05:14:55 10° ESE visible
25 Jun - 07:15:04 10° WSW 07:18:16 17° SSW 07:21:02 10° SSE daylight
26 Jun - 01:04:52 10° S 01:11:25 17° SSE 01:16:30 10° ESE visible
26 Jun - 03:12:40 10° SW 03:20:25 29° S 03:25:40 10° ESE visible
26 Jun - 05:22:49 10° WSW 05:28:37 29° S 05:32:45 10° SE daylight
26 Jun - 07:33:41 10° SW 07:35:59 13° SSW 07:38:04 10° S daylight
27 Jun - 01:21:04 10° SSW 01:29:26 22° SSE 01:35:29 10° ESE visible
27 Jun - 03:30:15 10° SW 03:38:23 33° S 03:43:44 10° ESE visible
27 Jun - 05:40:53 10° WSW 05:46:28 27° SSW 05:50:29 10° SE daylight
27 Jun - 23:32:29 10° S 23:37:52 13° SSE 23:42:28 10° SE night (unlit)
28 Jun - 01:37:54 10° SW 01:47:28 28° SSE 01:54:00 10° ESE visible
28 Jun - 03:48:03 10° WSW 03:56:20 35° S 04:01:43 10° ESE visible
28 Jun - 05:59:03 10° WSW 06:04:14 24° SSW 06:08:05 10° SE daylight
28 Jun - 23:47:18 10° S 23:55:52 19° SSE 00:02:34 10° ESE visible
29 Jun - 01:55:08 10° SW 02:05:28 33° SSE 02:12:15 10° ESE visible
29 Jun - 04:06:00 10° WSW 04:14:16 37° S 04:19:36 10° ESE visible
29 Jun - 06:17:23 10° WSW 06:21:58 20° SSW 06:25:28 10° SSE daylight
30 Jun - 00:03:21 10° SSW 00:13:52 24° SSE 00:21:35 10° ESE visible
30 Jun - 02:12:40 10° SW 02:23:28 38° S 02:30:21 10° ESE visible
30 Jun - 04:24:03 10° WSW 04:32:09 36° S 04:37:24 10° SE visible
30 Jun - 06:36:01 10° WSW 06:39:36 16° SSW 06:42:31 10° S daylight
30 Jun - 22:15:21 10° S 22:21:52 14° SE 22:27:34 10° ESE visible
01 Jul - 00:20:02 10° SSW 00:31:53 30° SSE 00:40:09 10° ESE visible
01 Jul - 02:30:25 10° WSW 02:41:27 41° S 02:48:20 10° ESE visible
01 Jul - 04:42:11 10° WSW 04:49:58 33° SSW 04:55:06 10° SE visible
01 Jul - 06:55:27 10° SW 06:57:08 11° SW 06:58:39 10° SSW daylight
01 Jul - 22:29:52 10° S 22:39:47 19° SSE 22:47:52 10° ESE visible
02 Jul - 00:37:09 10° SW 00:49:53 36° SSE 00:58:27 10° ESE visible
02 Jul - 02:48:21 10° WSW 02:59:25 43° S 03:06:17 10° ESE visible
02 Jul - 05:00:26 10° WSW 05:07:44 29° SSW 05:12:39 10° SE visible
02 Jul - 22:45:41 10° SSW 22:57:43 25° SSE 23:07:03 10° ESE visible
03 Jul - 00:54:35 10° SW 01:07:54 41° SSE 01:16:36 10° ESE visible
03 Jul - 03:06:23 10° WSW 03:17:21 44° S 03:24:07 10° ESE visible
03 Jul - 05:18:49 10° WSW 05:25:23 24° SSW 05:30:01 10° SSE daylight
03 Jul - 20:59:07 10° SSE 21:05:27 13° SE 21:11:17 10° ESE daylight
03 Jul - 23:02:11 10° SSW 23:15:40 31° SSE 23:25:44 10° E visible
04 Jul - 01:12:16 10° WSW 01:25:55 45° S 01:34:39 10° ESE visible
04 Jul - 03:24:31 10° WSW 03:35:14 42° SSW 03:41:53 10° SE visible
04 Jul - 05:37:27 10° WSW 05:42:57 19° SW 05:47:04 10° S daylight
04 Jul - 21:13:00 10° S 21:23:14 19° SE 21:32:13 10° ESE visible
04 Jul - 23:19:09 10° SW 23:33:38 37° SSE 23:44:07 10° E visible
